Location: Arroyo Grande
(40.2671°N, 4.2512°W)
Time: 18:41:03
(UTC+00:00)

YAOGAN 1 - Pass Details

Date: 03 February 2023
Orbit: 616 x 618 km, 97.8° (Epoch: 22 March)

Event Time Altitude Azimuth Distance (km) Brightness Sun altitude
Rises 18:05:59 0° 130° (SE) 2,881 5.7 -6.0°
Reaches altitude 10° 18:08:38 10° 113° (ESE) 1,981 4.7 -6.4°
Maximum altitude 18:11:45 20° 67° (ENE) 1,448 3.8 -7.0°
Drops below altitude 10° 18:14:53 10° 20° (NNE) 1,992 4.8 -7.6°
Sets 18:17:32 0° 4° (N) 2,902 5.8 -8.1°
